Location: Newark
(28.2500°S, 54.0200°W)
Time: 00:55:10
(UTC+00:00)

Hubble Space Telescope - Visible Passes

Search period start: 16 November 2019 00:00
Search period end: 26 November 2019 00:00
Orbit: 536 x 540 km, 28.5° (Epoch: 14 November)

Date Brightness Start Highest point End Pass type
(mag) Time Alt. Az. Time Alt. Az. Time Alt. Az.
19 Nov 3.3 07:39:10 10° NNE 07:40:00 10° NNE 07:40:50 10° NE visible
20 Nov 3.1 07:27:07 10° N 07:29:19 14° NNE 07:31:31 10° ENE visible
21 Nov 2.7 07:16:58 15° N 07:18:39 18° NNE 07:21:31 10° ENE visible
22 Nov 2.3 07:06:53 20° N 07:07:59 23° NNE 07:11:17 10° ENE visible
23 Nov 1.9 06:56:47 27° N 06:57:20 28° NNE 07:00:57 10° E visible
24 Nov 1.6 06:46:38 35° NNE 06:46:42 35° NNE 06:50:31 10° E visible
25 Nov 1.5 06:36:28 41° NE 06:36:28 41° NE 06:40:02 10° E visible
